User: anonymous   Login
Location: Unspecified
(0.0000°N, 0.0000°E)
Time: 15:27:07
(UTC+00:00)
Language:

EUCROPIS - Orbit

View from above orbital plane
View from above orbital plane
View from above satellite
View from above satellite

Ground track
Ground track

The orbit data is extracted from the following two-line orbital elements,

1 43807U 18099BB  21268.20442825  .00001176  00000-0  10966-3 0  9995
2 43807  97.6586 337.1302 0014223  76.0391 284.2411 14.96026865152829
Epoch (UTC): 25 September 2021 04:54:22
Eccentricity: 0.0014223
inclination: 97.6586°
perigee height: 569 km
apogee height: 589 km
right ascension of ascending node: 337.1302°
argument of perigee: 76.0391°
revolutions per day: 14.96026865
mean anomaly at epoch: 284.2411°
orbit number at epoch: 15282

The dashed part of the orbit path shows where the satellite is in the earth's shadow,  

DLR